Location: Amherst
(42.3800°N, 72.5240°W)
Time: 10:53:41
(UTC-04:00)

ISS - Pass Details

Date: 23 May 2021
Orbit: 417 x 422 km, 51.6° (Epoch: 14 June)

Event Time Altitude Azimuth Distance (km) Brightness Sun altitude
Rises 20:45:53 0° 286° (WNW) 2,361 1.7 -5.9°
Reaches altitude 10° 20:48:27 10° 306° (NW) 1,500 0.9 -6.3°
Maximum altitude 20:50:51 18° 352° (N) 1,105 -1.0 -6.7°
Drops below altitude 10° 20:53:17 10° 38° (NE) 1,503 -0.9 -7.0°
Sets 20:55:51 0° 58° (ENE) 2,369 -0.1 -7.4°
